| time (UTC) | temp F | wind direction | speed MPH | gust MPH | rain 1hr in | rain 24hr in | rain mn in | humidity % | barometer mb |
| 20260505055559 | 53 | 204 | 0.0 | 3.0 | 0.00 | 0.00 | 0.00 | 70 | 1014.4 |
| 20260505055058 | 54 | 205 | 0.0 | 3.0 | 0.00 | 0.00 | 0.00 | 70 | 1014.5 |
| 20260505054558 | 54 | 0 | 0.0 | 3.0 | 0.00 | 0.00 | 0.00 | 70 | 1014.5 |
| 20260505054058 | 54 | 209 | 0.0 | 2.0 | 0.00 | 0.00 | 0.00 | 69 | 1014.5 |
| 20260505053558 | 54 | 233 | 0.0 | 5.0 | 0.00 | 0.00 | 0.00 | 69 | 1014.5 |
| 20260505053108 | 54 | 234 | 0.0 | 5.0 | 0.00 | 0.00 | 0.00 | 69 | 1014.4 |
| 20260505052602 | 54 | 0 | 0.0 | 8.0 | 0.00 | 0.00 | 0.00 | 68 | 1014.4 |
| 20260505052057 | 54 | 0 | 1.0 | 8.0 | 0.00 | 0.00 | 0.00 | 68 | 1014.5 |
| 20260505051558 | 54 | 0 | 1.0 | 7.0 | 0.00 | 0.00 | 0.00 | 67 | 1014.5 |
| 20260505051058 | 54 | 182 | 1.0 | 4.0 | 0.00 | 0.00 | 0.00 | 67 | 1014.5 |
| 20260505050558 | 54 | 193 | 1.0 | 5.0 | 0.00 | 0.00 | 0.00 | 67 | 1014.5 |
| 20260505041557 | 55 | 0 | 2.0 | 6.0 | 0.00 | 0.00 | 0.00 | 64 | 1014.7 |
| 20260505041058 | 55 | 169 | 2.0 | 6.0 | 0.00 | 0.00 | 0.00 | 64 | 1014.7 |
| 20260505040601 | 55 | 253 | 1.0 | 6.0 | 0.00 | 0.00 | 0.00 | 64 | 1014.7 |
| 20260505040103 | 55 | 175 | 2.0 | 6.0 | 0.00 | 0.00 | 0.00 | 64 | 1014.6 |
| 20260505035557 | 55 | 170 | 1.0 | 7.0 | 0.00 | 0.00 | 0.00 | 63 | 1014.6 |
| 20260505035058 | 56 | 157 | 2.0 | 9.0 | 0.00 | 0.00 | 0.00 | 63 | 1014.6 |
| 20260505034558 | 56 | 0 | 3.0 | 8.0 | 0.00 | 0.00 | 0.00 | 63 | 1014.5 |
| 20260505034057 | 56 | 173 | 3.0 | 7.0 | 0.00 | 0.00 | 0.00 | 62 | 1014.4 |
| 20260505033558 | 56 | 164 | 1.0 | 8.0 | 0.00 | 0.00 | 0.00 | 62 | 1014.5 |
| 20260505033115 | 56 | 234 | 4.0 | 8.0 | 0.00 | 0.00 | 0.00 | 62 | 1014.5 |
| 20260505032558 | 56 | 161 | 3.0 | 8.0 | 0.00 | 0.00 | 0.00 | 61 | 1014.4 |
| 20260505032059 | 56 | 161 | 3.0 | 8.0 | 0.00 | 0.00 | 0.00 | 61 | 1014.5 |
| 20260505031556 | 56 | 159 | 4.0 | 8.0 | 0.00 | 0.00 | 0.00 | 60 | 1014.6 |
| 20260505031102 | 56 | 170 | 3.0 | 9.0 | 0.00 | 0.00 | 0.00 | 60 | 1014.5 |
| 20260505030601 | 56 | 178 | 2.0 | 9.0 | 0.00 | 0.00 | 0.00 | 60 | 1014.5 |
| 20260505030056 | 57 | 163 | 3.0 | 6.0 | 0.00 | 0.00 | 0.00 | 59 | 1014.6 |
| 20260505025557 | 57 | 171 | 1.0 | 6.0 | 0.00 | 0.00 | 0.00 | 59 | 1014.6 |
| 20260505025057 | 57 | 173 | 3.0 | 9.0 | 0.00 | 0.00 | 0.00 | 58 | 1014.6 |
| 20260505024604 | 57 | 171 | 3.0 | 9.0 | 0.00 | 0.00 | 0.00 | 58 | 1014.6 |
| 20260505024057 | 57 | 170 | 2.0 | 9.0 | 0.00 | 0.00 | 0.00 | 57 | 1014.6 |
| 20260505023600 | 57 | 163 | 1.0 | 8.0 | 0.00 | 0.00 | 0.00 | 57 | 1014.6 |
| 20260505023106 | 57 | 128 | 2.0 | 9.0 | 0.00 | 0.00 | 0.00 | 56 | 1014.6 |
| 20260505022557 | 58 | 165 | 3.0 | 9.0 | 0.00 | 0.00 | 0.00 | 56 | 1014.6 |
| 20260505022102 | 58 | 162 | 3.0 | 8.0 | 0.00 | 0.00 | 0.00 | 55 | 1014.6 |
| 20260505021600 | 58 | 176 | 3.0 | 10.0 | 0.00 | 0.00 | 0.00 | 55 | 1014.7 |
| 20260505021057 | 58 | 176 | 4.0 | 10.0 | 0.00 | 0.00 | 0.00 | 54 | 1014.6 |
| 20260505020557 | 58 | 175 | 2.0 | 8.0 | 0.00 | 0.00 | 0.00 | 54 | 1014.7 |
| 20260505020059 | 58 | 165 | 2.0 | 8.0 | 0.00 | 0.00 | 0.00 | 54 | 1014.7 |
| 20260505015559 | 58 | 186 | 2.0 | 8.0 | 0.00 | 0.00 | 0.00 | 53 | 1014.6 |
| 20260505015058 | 58 | 165 | 3.0 | 8.0 | 0.00 | 0.00 | 0.00 | 53 | 1014.7 |
| 20260505014609 | 58 | 172 | 3.0 | 10.0 | 0.00 | 0.00 | 0.00 | 52 | 1014.6 |
| 20260505014059 | 59 | 167 | 4.0 | 10.0 | 0.00 | 0.00 | 0.00 | 51 | 1014.5 |
| 20260505013558 | 59 | 184 | 2.0 | 9.0 | 0.00 | 0.00 | 0.00 | 51 | 1014.5 |
| 20260505013058 | 59 | 166 | 4.0 | 9.0 | 0.00 | 0.00 | 0.00 | 50 | 1014.5 |
| 20260505012559 | 59 | 198 | 3.0 | 8.0 | 0.00 | 0.00 | 0.00 | 50 | 1014.5 |
| 20260505012058 | 59 | 167 | 3.0 | 8.0 | 0.00 | 0.00 | 0.00 | 50 | 1014.4 |
| 20260505011609 | 59 | 161 | 3.0 | 10.0 | 0.00 | 0.00 | 0.00 | 49 | 1014.2 |
| 20260505011100 | 60 | 171 | 3.0 | 10.0 | 0.00 | 0.00 | 0.00 | 48 | 1014.1 |
| 20260505010557 | 60 | 177 | 4.0 | 10.0 | 0.00 | 0.00 | 0.00 | 48 | 1014.1 |
| 20260505010109 | 60 | 179 | 3.0 | 10.0 | 0.00 | 0.00 | 0.00 | 48 | 1014.1 |
| 20260505005557 | 60 | 175 | 4.0 | 10.0 | 0.00 | 0.00 | 0.00 | 48 | 1014.0 |
| 20260505005057 | 60 | 116 | 4.0 | 10.0 | 0.00 | 0.00 | 0.00 | 48 | 1013.8 |
| 20260505004604 | 60 | 213 | 4.0 | 13.0 | 0.00 | 0.00 | 0.00 | 47 | 1013.7 |
| 20260505004102 | 60 | 155 | 5.0 | 13.0 | 0.00 | 0.00 | 0.00 | 47 | 1013.6 |
| 20260505003559 | 60 | 169 | 5.0 | 12.0 | 0.00 | 0.00 | 0.00 | 47 | 1013.6 |
| 20260505003104 | 60 | 171 | 6.0 | 12.0 | 0.00 | 0.00 | 0.00 | 47 | 1013.5 |
| 20260505002558 | 61 | 152 | 5.0 | 11.0 | 0.00 | 0.00 | 0.00 | 47 | 1013.5 |
| 20260505002057 | 61 | 183 | 5.0 | 11.0 | 0.00 | 0.00 | 0.00 | 47 | 1013.2 |
| 20260505001607 | 61 | 172 | 3.0 | 10.0 | 0.00 | 0.00 | 0.00 | 47 | 1013.1 |
| 20260505001101 | 61 | 157 | 5.0 | 12.0 | 0.00 | 0.00 | 0.00 | 46 | 1013.1 |
| 20260505000558 | 62 | 186 | 4.0 | 12.0 | 0.00 | 0.00 | 0.00 | 46 | 1012.9 |
| 20260504235559 | 63 | 171 | 3.0 | 10.0 | 0.00 | 0.00 | 0.00 | 44 | 1012.7 |
| 20260504235102 | 63 | 180 | 5.0 | 12.0 | 0.00 | 0.00 | 0.00 | 43 | 1012.8 |
| 20260504234624 | 64 | 178 | 4.0 | 13.0 | 0.00 | 0.00 | 0.00 | 43 | 1012.7 |
| 20260504234057 | 64 | 167 | 5.0 | 13.0 | 0.00 | 0.00 | 0.00 | 42 | 1012.5 |
| 20260504233557 | 64 | 173 | 5.0 | 14.0 | 0.00 | 0.00 | 0.00 | 41 | 1012.4 |
| 20260504233058 | 65 | 168 | 4.0 | 14.0 | 0.00 | 0.00 | 0.00 | 40 | 1012.3 |
| 20260504232558 | 65 | 160 | 5.0 | 15.0 | 0.00 | 0.00 | 0.00 | 40 | 1012.2 |
| 20260504232057 | 65 | 165 | 7.0 | 17.0 | 0.00 | 0.00 | 0.00 | 40 | 1012.1 |
| 20260504231601 | 65 | 185 | 5.0 | 17.0 | 0.00 | 0.00 | 0.00 | 40 | 1012.1 |
| 20260504231057 | 65 | 178 | 7.0 | 17.0 | 0.00 | 0.00 | 0.00 | 40 | 1012.0 |
| 20260504230559 | 66 | 162 | 4.0 | 12.0 | 0.00 | 0.00 | 0.00 | 40 | 1011.7 |
| 20260504230057 | 66 | 199 | 4.0 | 12.0 | 0.00 | 0.00 | 0.00 | 40 | 1011.5 |
| 20260504225556 | 66 | 207 | 4.0 | 12.0 | 0.00 | 0.00 | 0.00 | 39 | 1011.4 |
| 20260504225058 | 66 | 156 | 5.0 | 12.0 | 0.00 | 0.00 | 0.00 | 39 | 1011.4 |
| 20260504224605 | 67 | 150 | 4.0 | 14.0 | 0.00 | 0.00 | 0.00 | 39 | 1011.3 |
| 20260504224056 | 67 | 171 | 5.0 | 14.0 | 0.00 | 0.00 | 0.00 | 38 | 1011.2 |
| 20260504223558 | 67 | 175 | 7.0 | 13.0 | 0.00 | 0.00 | 0.00 | 37 | 1011.3 |
| 20260504223056 | 67 | 134 | 5.0 | 15.0 | 0.00 | 0.00 | 0.00 | 38 | 1011.2 |
| 20260504222558 | 67 | 161 | 6.0 | 15.0 | 0.00 | 0.00 | 0.00 | 37 | 1011.1 |
| 20260504222100 | 68 | 166 | 3.0 | 15.0 | 0.00 | 0.00 | 0.00 | 37 | 1011.3 |
| 20260504221603 | 68 | 213 | 5.0 | 17.0 | 0.00 | 0.00 | 0.00 | 36 | 1011.1 |
| 20260504221057 | 68 | 240 | 6.0 | 20.0 | 0.00 | 0.00 | 0.00 | 36 | 1011.1 |
| 20260504220557 | 68 | 297 | 6.0 | 20.0 | 0.00 | 0.00 | 0.00 | 36 | 1011.1 |
| 20260504220058 | 68 | 163 | 5.0 | 18.0 | 0.00 | 0.00 | 0.00 | 35 | 1011.0 |
| 20260504215557 | 69 | 168 | 6.0 | 13.0 | 0.00 | 0.00 | 0.00 | 35 | 1011.0 |
| 20260504215056 | 69 | 145 | 6.0 | 13.0 | 0.00 | 0.00 | 0.00 | 34 | 1011.1 |
| 20260504214603 | 69 | 197 | 4.0 | 13.0 | 0.00 | 0.00 | 0.00 | 33 | 1011.0 |
| 20260504214057 | 70 | 172 | 5.0 | 13.0 | 0.00 | 0.00 | 0.00 | 33 | 1010.9 |
| 20260504213557 | 70 | 196 | 4.0 | 12.0 | 0.00 | 0.00 | 0.00 | 29 | 1010.9 |
| 20260504213103 | 71 | 171 | 5.0 | 12.0 | 0.00 | 0.00 | 0.00 | 29 | 1010.9 |
| 20260504212557 | 71 | 195 | 6.0 | 12.0 | 0.00 | 0.00 | 0.00 | 29 | 1010.9 |
| 20260504212059 | 71 | 157 | 6.0 | 11.0 | 0.00 | 0.00 | 0.00 | 29 | 1010.9 |
| 20260504211602 | 71 | 212 | 4.0 | 9.0 | 0.00 | 0.00 | 0.00 | 30 | 1010.8 |
| 20260504211056 | 71 | 160 | 4.0 | 14.0 | 0.00 | 0.00 | 0.00 | 30 | 1010.8 |
| 20260504210558 | 71 | 176 | 5.0 | 14.0 | 0.00 | 0.00 | 0.00 | 30 | 1010.9 |
| 20260504210104 | 71 | 209 | 4.0 | 16.0 | 0.00 | 0.00 | 0.00 | 30 | 1010.8 |
| 20260504205602 | 71 | 218 | 3.0 | 16.0 | 0.00 | 0.00 | 0.00 | 30 | 1010.8 |
| 20260504205101 | 72 | 219 | 3.0 | 16.0 | 0.00 | 0.00 | 0.00 | 29 | 1010.8 |
| 20260504204636 | 71 | 170 | 3.0 | 11.0 | 0.00 | 0.00 | 0.00 | 29 | 1010.7 |
| 20260504204057 | 71 | 159 | 3.0 | 11.0 | 0.00 | 0.00 | 0.00 | 29 | 1010.7 |
| 20260504203557 | 71 | 216 | 4.0 | 12.0 | 0.00 | 0.00 | 0.00 | 29 | 1010.8 |
| 20260504203054 | 72 | 175 | 5.0 | 12.0 | 0.00 | 0.00 | 0.00 | 28 | 1010.8 |
| 20260504202557 | 72 | 247 | 3.0 | 12.0 | 0.00 | 0.00 | 0.00 | 29 | 1010.8 |
| 20260504202056 | 72 | 266 | 3.0 | 13.0 | 0.00 | 0.00 | 0.00 | 28 | 1010.8 |
| 20260504201556 | 72 | 225 | 4.0 | 13.0 | 0.00 | 0.00 | 0.00 | 27 | 1010.8 |
| 20260504201057 | 72 | 240 | 2.0 | 10.0 | 0.00 | 0.00 | 0.00 | 30 | 1010.8 |
| 20260504200557 | 72 | 276 | 4.0 | 10.0 | 0.00 | 0.00 | 0.00 | 29 | 1010.9 |
| 20260504200059 | 72 | 159 | 3.0 | 11.0 | 0.00 | 0.00 | 0.00 | 29 | 1010.9 |
| 20260504195556 | 72 | 212 | 5.0 | 12.0 | 0.00 | 0.00 | 0.00 | 28 | 1010.9 |
| 20260504195101 | 72 | 205 | 4.0 | 15.0 | 0.00 | 0.00 | 0.00 | 28 | 1011.0 |
| 20260504194558 | 72 | 155 | 4.0 | 15.0 | 0.00 | 0.00 | 0.00 | 28 | 1011.1 |
| 20260504194059 | 72 | 171 | 2.0 | 13.0 | 0.00 | 0.00 | 0.00 | 28 | 1010.9 |
| 20260504193601 | 72 | 0 | 5.0 | 13.0 | 0.00 | 0.00 | 0.00 | 28 | 1010.9 |
| 20260504193055 | 72 | 170 | 6.0 | 14.0 | 0.00 | 0.00 | 0.00 | 28 | 1010.9 |
| 20260504192556 | 71 | 166 | 5.0 | 16.0 | 0.00 | 0.00 | 0.00 | 28 | 1010.9 |
| 20260504192057 | 71 | 149 | 5.0 | 16.0 | 0.00 | 0.00 | 0.00 | 27 | 1011.0 |
| 20260504191555 | 72 | 175 | 4.0 | 17.0 | 0.00 | 0.00 | 0.00 | 28 | 1010.9 |
| 20260504191057 | 72 | 162 | 6.0 | 17.0 | 0.00 | 0.00 | 0.00 | 26 | 1011.0 |
| 20260504190559 | 72 | 225 | 4.0 | 16.0 | 0.00 | 0.00 | 0.00 | 28 | 1011.2 |
| 20260504185556 | 72 | 242 | 6.0 | 17.0 | 0.00 | 0.00 | 0.00 | 27 | 1011.4 |
| 20260504185100 | 72 | 230 | 4.0 | 19.0 | 0.00 | 0.00 | 0.00 | 27 | 1011.1 |
| 20260504184604 | 72 | 175 | 8.0 | 19.0 | 0.00 | 0.00 | 0.00 | 27 | 1011.3 |
| 20260504184057 | 71 | 227 | 5.0 | 14.0 | 0.00 | 0.00 | 0.00 | 28 | 1011.3 |
| 20260504183557 | 71 | 167 | 7.0 | 16.0 | 0.00 | 0.00 | 0.00 | 27 | 1011.4 |
| 20260504183059 | 71 | 164 | 6.0 | 16.0 | 0.00 | 0.00 | 0.00 | 28 | 1011.4 |
| 20260504182559 | 71 | 166 | 4.0 | 18.0 | 0.00 | 0.00 | 0.00 | 29 | 1011.4 |
| 20260504182056 | 71 | 163 | 5.0 | 18.0 | 0.00 | 0.00 | 0.00 | 28 | 1011.6 |
| 20260504181555 | 71 | 221 | 4.0 | 11.0 | 0.00 | 0.00 | 0.00 | 27 | 1011.6 |
| 20260504181056 | 71 | 248 | 3.0 | 11.0 | 0.00 | 0.00 | 0.00 | 28 | 1011.7 |
| 20260504180600 | 71 | 276 | 1.0 | 19.0 | 0.00 | 0.00 | 0.00 | 28 | 1011.7 |
| 20260504180058 | 70 | 192 | 6.0 | 19.0 | 0.00 | 0.00 | 0.00 | 28 | 1011.8 |
| 20260504175559 | 70 | 190 | 6.0 | 19.0 | 0.00 | 0.00 | 0.00 | 27 | 1011.9 |
| 20260504175057 | 70 | 213 | 4.0 | 19.0 | 0.00 | 0.00 | 0.00 | 29 | 1011.9 |
| 20260504174555 | 70 | 188 | 7.0 | 19.0 | 0.00 | 0.00 | 0.00 | 28 | 1011.8 |
| 20260504174057 | 70 | 184 | 3.0 | 14.0 | 0.00 | 0.00 | 0.00 | 31 | 1011.8 |
| 20260504173555 | 70 | 219 | 5.0 | 20.0 | 0.00 | 0.00 | 0.00 | 29 | 1011.8 |
| 20260504173054 | 70 | 238 | 6.0 | 22.0 | 0.00 | 0.00 | 0.00 | 28 | 1011.9 |
| 20260504172556 | 70 | 245 | 6.0 | 22.0 | 0.00 | 0.00 | 0.00 | 28 | 1011.8 |
| 20260504172056 | 70 | 240 | 6.0 | 22.0 | 0.00 | 0.00 | 0.00 | 30 | 1012.0 |
| 20260504171557 | 70 | 319 | 4.0 | 17.0 | 0.00 | 0.00 | 0.00 | 30 | 1011.8 |
| 20260504171057 | 70 | 191 | 5.0 | 16.0 | 0.00 | 0.00 | 0.00 | 29 | 1011.9 |
| 20260504170557 | 70 | 257 | 2.0 | 16.0 | 0.00 | 0.00 | 0.00 | 30 | 1011.9 |
| 20260504151056 | 66 | 210 | 3.0 | 19.0 | 0.00 | 0.00 | 0.00 | 34 | 1013.2 |
| 20260504150600 | 66 | 169 | 5.0 | 14.0 | 0.00 | 0.00 | 0.00 | 33 | 1013.1 |
| 20260504150104 | 66 | 253 | 5.0 | 14.0 | 0.00 | 0.00 | 0.00 | 34 | 1013.1 |
| 20260504141102 | 63 | 223 | 3.0 | 15.0 | 0.00 | 0.00 | 0.00 | 38 | 1013.7 |
| 20260504140559 | 62 | 187 | 2.0 | 15.0 | 0.00 | 0.00 | 0.00 | 38 | 1013.7 |
| 20260504130601 | 57 | 244 | 2.0 | 10.0 | 0.00 | 0.00 | 0.00 | 44 | 1014.6 |
| 20260504110558 | 49 | 243 | 0.0 | 10.0 | 0.00 | 0.00 | 0.00 | 51 | 1014.8 |
| 20260504100559 | 47 | 236 | 1.0 | 7.0 | 0.00 | 0.00 | 0.00 | 55 | 1014.8 |
| 20260504100103 | 46 | 243 | 1.0 | 7.0 | 0.00 | 0.00 | 0.00 | 54 | 1014.8 |
| 20260504081558 | 45 | 0 | 0.0 | 3.0 | 0.00 | 0.00 | 0.00 | 57 | 1014.7 |
| 20260504081058 | 45 | 0 | 0.0 | 3.0 | 0.00 | 0.00 | 0.00 | 60 | 1014.6 |
| 20260504080557 | 45 | 253 | 0.0 | 1.0 | 0.00 | 0.00 | 0.00 | 60 | 1014.6 |
| 20260504070103 | 44 | 0 | 0.0 | 3.0 | 0.00 | 0.00 | 0.00 | 60 | 1014.6 |